Location: Fours
(44.3167°N, 6.7000°E)
Time: 07:51:13
(UTC+00:00)

Cosmos 2227 - Pass Details

Date: 04 December 2023
Orbit: 836 x 859 km, 71.0° (Epoch: 24 February)

Event Time Altitude Azimuth Distance (km) Brightness Sun altitude
Rises 16:31:28 0° 175° (S) 3,418 7.6 -6.7°
Reaches altitude 10° 16:34:07 10° 166° (SSE) 2,486 6.8 -7.1°
Maximum altitude 16:39:09 33° 104° (ESE) 1,413 5.0 -7.9°
Drops below altitude 10° 16:44:12 10° 43° (NE) 2,495 6.1 -8.7°
Enters shadow 16:44:53 - 40° (NE) 2,730 6.3 -8.9°
